This is the latest recevied weather packets stored in our database for station/object IA5KRO-13. If no packets are shown the sender has not sent any weather packets the latest 1 day(s).
| Time | Temp. | Humidity | Pressure | Rain* | Wind** | Luminosity | Snow |
|---|---|---|---|---|---|---|---|
| 1778031309 | 16.11° C | 96% | 1017.3 hPa | 1.02 mm | - | - | - |
| 1778030710 | 16.11° C | 96% | 1017.3 hPa | 1.02 mm | - | - | - |
| 1778030413 | 16.11° C | 97% | 1017.6 hPa | 2.29 mm | - | - | - |
| 1778029510 | 16.11° C | 95% | 1018 hPa | 2.29 mm | - | - | - |
| 1778029233 | 16.11° C | 97% | 1018 hPa | 3.56 mm | - | - | - |
| 1778028909 | 17.22° C | 97% | 1018 hPa | 3.3 mm | - | - | - |
| 1778028613 | 17.22° C | 94% | 1018 hPa | 1.02 mm | - | - | - |
| 1778028313 | 17.22° C | 93% | 1018 hPa | 0 mm | - | - | - |
| 1778027709 | 17.22° C | 94% | 1018.3 hPa | 0.25 mm | - | - | - |
| 1778025910 | 17.22° C | 94% | 1019 hPa | 0 mm | - | - | - |
| 1778025637 | 17.22° C | 94% | 1019 hPa | 0 mm | - | - | - |
| 1778024713 | 17.22° C | 93% | 1018.3 hPa | 0 mm | - | - | - |
| 1778024414 | 17.22° C | 93% | 1018.3 hPa | 0 mm | - | - | - |
| 1778023822 | 17.22° C | 93% | 1018.3 hPa | 0 mm | - | - | - |
| 1778023213 | 17.22° C | 92% | 1019 hPa | 0 mm | - | - | - |
| 1778022913 | 17.22° C | 91% | 1019 hPa | 0 mm | - | - | - |
| 1778021413 | 17.22° C | 94% | 1018.3 hPa | 0 mm | - | - | - |
| 1778017213 | 17.22° C | 94% | 1019.3 hPa | 1.02 mm | - | - | - |
| 1778015713 | 17.22° C | 91% | 1020 hPa | 0.25 mm | - | - | - |
| 1778013311 | 17.78° C | 88% | 1020 hPa | 0 mm | - | - | - |
| 1778010313 | 17.78° C | 91% | 1020 hPa | 0 mm | - | - | - |
| 1778008513 | 17.78° C | 90% | 1020 hPa | 0 mm | - | - | - |
| 1778004614 | 17.78° C | 87% | 1019.6 hPa | 0 mm | - | - | - |
| 1778001613 | 18.89° C | 83% | 1020 hPa | 0 mm | - | - | - |
| 1778001014 | 18.89° C | 82% | 1020 hPa | 0 mm | - | - | - |
* Rain latest hour (hover to see other rain measurements)
** Current wind speed in m/s (hover to see current wind gust speed)